• In Germany
  • List of Countries
  • For 7 days
  • Water Temperature
  • Satellite Maps
  • Weather Map
  • Weather Widgets
  • user-avatar
    Login

    Hourly Weather Baunt

    Today, 22 April, Sunday

    Time Temperature Precipitation Wind Pressure Humidity
    00:00 -4°C° 0 mm 1 mps 667 mmHg 78%
    01:00 -4°C° 0 mm 1 mps 667 mmHg 78%
    02:00 -4°C° 0 mm 1 mps 667 mmHg 78%
    03:00 -4°C° 0 mm 1 mps 667 mmHg 77%
    04:00 -4°C° 0 mm 1 mps 667 mmHg 77%
    05:00 -4°C° 0 mm 1 mps 667 mmHg 77%
    06:00 -3°C° 0 mm 1 mps 668 mmHg 75%
    07:00 -1°C° 0 mm 1 mps 668 mmHg 73%
    08:00 +2°C° 0 mm 1 mps 669 mmHg 74%
    09:00 +3°C° 0 mm 1 mps 669 mmHg 78%
    10:00 +4°C° 0 mm 1 mps 669 mmHg 82%
    11:00 +5°C° 0 mm 1 mps 668 mmHg 86%
    12:00 +4°C° 0 mm 2 mps 668 mmHg 84%
    13:00 +5°C° 0 mm 2 mps 668 mmHg 82%
    14:00 +5°C° 0 mm 2 mps 668 mmHg 80%
    15:00 +5°C° 0 mm 2 mps 668 mmHg 78%
    16:00 +5°C° 0 mm 2 mps 667 mmHg 76%
    17:00 +6°C° 0 mm 2 mps 667 mmHg 74%
    18:00 +4°C° 0 mm 2 mps 667 mmHg 75%
    19:00 +3°C° 0 mm 1 mps 666 mmHg 75%
    20:00 +1°C° 0 mm 1 mps 666 mmHg 76%
    21:00 +1°C° 0 mm 1 mps 666 mmHg 75%
    22:00 +1°C° 0 mm 1 mps 666 mmHg 75%
    23:00 0°C° 0 mm 1 mps 666 mmHg 74%

    Tomorrow, 23 April, Monday

    Time Temperature Precipitation Wind Pressure Humidity
    00:00 0°C° 0 mm 1 mps 666 mmHg 74%
    01:00 0°C° 0 mm 1 mps 666 mmHg 74%
    02:00 -1°C° 0 mm 1 mps 665 mmHg 75%
    03:00 -1°C° 0 mm 1 mps 665 mmHg 75%
    04:00 -1°C° 0 mm 1 mps 665 mmHg 76%
    05:00 -1°C° 0 mm 1 mps 665 mmHg 76%
    06:00 0°C° 0 mm 1 mps 665 mmHg 75%
    07:00 +2°C° 0 mm 1 mps 664 mmHg 75%
    08:00 +2°C° 0 mm 2 mps 664 mmHg 74%
    09:00 +3°C° 0 mm 2 mps 664 mmHg 72%
    10:00 +5°C° 0 mm 2 mps 664 mmHg 69%
    11:00 +5°C° 0 mm 3 mps 664 mmHg 67%
    12:00 +6°C° 0 mm 4 mps 664 mmHg 61%
    13:00 +7°C° 0 mm 4 mps 664 mmHg 54%
    14:00 +8°C° 0 mm 5 mps 664 mmHg 48%
    15:00 +8°C° 0 mm 5 mps 664 mmHg 48%
    16:00 +8°C° 0 mm 5 mps 664 mmHg 49%
    17:00 +8°C° 0 mm 5 mps 663 mmHg 49%
    18:00 +6°C° 0 mm 4 mps 663 mmHg 56%
    19:00 +5°C° 0 mm 3 mps 663 mmHg 64%
    20:00 +4°C° 0 mm 2 mps 663 mmHg 71%
    21:00 +3°C° 0 mm 2 mps 663 mmHg 73%
    22:00 +3°C° 0 mm 2 mps 663 mmHg 75%
    23:00 +3°C° 0 mm 2 mps 663 mmHg 77%

    Day after tomorrow, 24 April, Tuesday

    Time Temperature Precipitation Wind Pressure Humidity
    00:00 +3°C° 0.1 mm 2 mps 663 mmHg 78%
    01:00 +2°C° 0.1 mm 2 mps 662 mmHg 80%
    02:00 +2°C° 0.1 mm 2 mps 662 mmHg 81%
    03:00 +3°C° 0.1 mm 1 mps 662 mmHg 82%
    04:00 +3°C° 0.1 mm 1 mps 662 mmHg 83%
    05:00 +2°C° 0.1 mm 1 mps 661 mmHg 84%
    06:00 +3°C° 0 mm 1 mps 661 mmHg 82%
    07:00 +4°C° 0 mm 1 mps 661 mmHg 79%
    08:00 +5°C° 0 mm 1 mps 661 mmHg 77%
    09:00 +7°C° 0 mm 1 mps 661 mmHg 73%
    10:00 +7°C° 0 mm 2 mps 661 mmHg 69%
    11:00 +8°C° 0 mm 2 mps 661 mmHg 65%
    12:00 +9°C° 0.3 mm 2 mps 660 mmHg 64%
    13:00 +9°C° 0.3 mm 3 mps 660 mmHg 64%
    14:00 +10°C° 0.3 mm 4 mps 659 mmHg 64%
    15:00 +9°C° 0.3 mm 3 mps 659 mmHg 67%
    16:00 +9°C° 0.3 mm 3 mps 659 mmHg 69%
    17:00 +9°C° 0.3 mm 3 mps 658 mmHg 72%
    18:00 +7°C° 0.1 mm 3 mps 658 mmHg 76%
    19:00 +6°C° 0.1 mm 2 mps 658 mmHg 81%
    20:00 +4°C° 0.1 mm 2 mps 658 mmHg 85%
    21:00 +4°C° 0.2 mm 2 mps 658 mmHg 87%
    22:00 +3°C° 0.2 mm 2 mps 658 mmHg 88%
    23:00 +3°C° 0.2 mm 2 mps 658 mmHg 89%

    25 April, Wednesday

    Time Temperature Precipitation Wind Pressure Humidity
    00:00 +2°C° 0.2 mm 2 mps 658 mmHg 90%
    01:00 +2°C° 0.2 mm 2 mps 658 mmHg 90%
    02:00 0°C° 0.2 mm 3 mps 658 mmHg 91%
    03:00 0°C° 0.1 mm 3 mps 658 mmHg 90%
    04:00 -1°C° 0.1 mm 3 mps 659 mmHg 89%
    05:00 -1°C° 0.1 mm 3 mps 659 mmHg 88%
    06:00 -1°C° 0 mm 3 mps 660 mmHg 82%
    07:00 -1°C° 0 mm 3 mps 660 mmHg 77%
    08:00 -1°C° 0 mm 3 mps 661 mmHg 71%
    09:00 0°C° 0 mm 3 mps 661 mmHg 62%
    10:00 0°C° 0 mm 4 mps 662 mmHg 52%
    11:00 +1°C° 0 mm 4 mps 662 mmHg 43%
    12:00 +1°C° 0 mm 4 mps 662 mmHg 40%
    13:00 +1°C° 0 mm 4 mps 662 mmHg 37%
    14:00 +3°C° 0 mm 4 mps 662 mmHg 34%
    15:00 +3°C° 0 mm 4 mps 662 mmHg 34%
    16:00 +3°C° 0 mm 4 mps 662 mmHg 33%
    17:00 +3°C° 0 mm 3 mps 662 mmHg 33%
    18:00 +1°C° 0 mm 3 mps 662 mmHg 38%
    19:00 +1°C° 0 mm 2 mps 662 mmHg 42%
    20:00 -2°C° 0 mm 2 mps 662 mmHg 47%
    21:00 -2°C° 0 mm 2 mps 663 mmHg 48%
    22:00 0°C° 0 mm 1 mps 663 mmHg 48%
    23:00 -1°C° 0 mm 1 mps 663 mmHg 49%

    26 April, Thursday

    Time Temperature Precipitation Wind Pressure Humidity
    00:00 -1°C° 0 mm 1 mps 663 mmHg 48%
    01:00 -1°C° 0 mm 1 mps 663 mmHg 47%
    02:00 -2°C° 0 mm 0 mps 663 mmHg 45%
    03:00 -2°C° 0 mm 0 mps 663 mmHg 45%
    04:00 -1°C° 0 mm 1 mps 663 mmHg 44%
    05:00 -1°C° 0 mm 1 mps 662 mmHg 44%
    06:00 0°C° 0 mm 1 mps 663 mmHg 41%
    07:00 +1°C° 0 mm 1 mps 663 mmHg 38%
    08:00 +1°C° 0 mm 2 mps 663 mmHg 35%
    09:00 +3°C° 0 mm 2 mps 662 mmHg 34%
    10:00 +4°C° 0 mm 2 mps 662 mmHg 33%
    11:00 +6°C° 0 mm 2 mps 661 mmHg 32%
    12:00 +7°C° 0 mm 3 mps 661 mmHg 35%
    13:00 +8°C° 0 mm 3 mps 661 mmHg 37%
    14:00 +8°C° 0 mm 4 mps 660 mmHg 40%
    15:00 +8°C° 0 mm 4 mps 660 mmHg 43%
    16:00 +8°C° 0 mm 4 mps 660 mmHg 46%
    17:00 +10°C° 0 mm 4 mps 659 mmHg 49%
    18:00 +7°C° 0 mm 4 mps 659 mmHg 56%
    19:00 +6°C° 0 mm 4 mps 659 mmHg 63%
    20:00 +4°C° 0 mm 3 mps 659 mmHg 69%
    21:00 +3°C° 0 mm 3 mps 659 mmHg 73%
    22:00 +2°C° 0 mm 3 mps 659 mmHg 76%
    23:00 +1°C° 0 mm 3 mps 659 mmHg 80%

    27 April, Friday

    Time Temperature Precipitation Wind Pressure Humidity
    00:00 +1°C° 0 mm 3 mps 659 mmHg 80%
    01:00 0°C° 0 mm 3 mps 659 mmHg 81%
    02:00 0°C° 0 mm 3 mps 659 mmHg 81%
    03:00 0°C° 0 mm 3 mps 659 mmHg 81%
    04:00 0°C° 0 mm 3 mps 659 mmHg 80%
    05:00 -1°C° 0 mm 3 mps 659 mmHg 79%
    06:00 -1°C° 0 mm 4 mps 660 mmHg 72%
    07:00 +1°C° 0 mm 6 mps 660 mmHg 64%
    08:00 +1°C° 0 mm 8 mps 660 mmHg 57%
    09:00 +1°C° 0 mm 9 mps 660 mmHg 53%
    10:00 +2°C° 0 mm 10 mps 660 mmHg 50%
    11:00 +2°C° 0 mm 11 mps 660 mmHg 46%
    12:00 +2°C° 0.1 mm 12 mps 660 mmHg 47%
    13:00 +2°C° 0.1 mm 12 mps 660 mmHg 47%
    14:00 0°C° 0.1 mm 12 mps 660 mmHg 47%
    15:00 0°C° 0 mm 12 mps 660 mmHg 48%
    16:00 +1°C° 0 mm 11 mps 660 mmHg 49%
    17:00 -1°C° 0 mm 11 mps 661 mmHg 50%
    18:00 -1°C° 0 mm 9 mps 661 mmHg 54%
    19:00 -2°C° 0 mm 6 mps 661 mmHg 57%
    20:00 -2°C° 0 mm 4 mps 661 mmHg 61%
    21:00 -2°C° 0 mm 4 mps 661 mmHg 65%
    22:00 -2°C° 0 mm 3 mps 661 mmHg 68%
    23:00 -2°C° 0 mm 2 mps 661 mmHg 71%
    Show more